Tracking 19245 objects as of 14-Aug-2018
HD Live streaming from Space Station
objects crossing your sky now

LANDSAT 4

Track LANDSAT 4 now!
10-day predictions
LANDSAT 4 is classified as:


NORAD ID: 13367
Int'l Code: 1982-072A
Perigee: 515.1 km
Apogee: 532.4 km
Inclination: 98.3 °
Period: 95.0 minutes
Semi major axis: 6894 km
RCS: 7.754 m2 (large)
Launch date: July 16, 1982
Source: United States (US)
Launch site: AIR FORCE WESTERN TEST RANGE (AFWTR)
aabbcc
Your satellite tracking list
Your tracking list is empty




NASA's NSSDC Master Catalog

Two Line Element Set (TLE):
1 13367U 82072A   18224.66492882 +.00000281 +00000-0 +18552-4 0  9997
2 13367 098.2563 069.4523 0012514 202.1662 197.9675 15.16441472374201
Source of the keplerian elements: AFSPC